TimeEST,TemperatureF,Dew PointF,Humidity,Sea Level PressureIn,VisibilityMPH,Wind Direction,Wind SpeedMPH,Gust SpeedMPH,PrecipitationIn,Events,Conditions,WindDirDegrees,DateUTC
12:16 AM,46.4,37.4,71,30.48,10.0,NNE,5.8,-,N/A,,Overcast,30,2012-11-19 05:16:00
12:37 AM,46.4,37.4,71,30.47,10.0,NNE,5.8,-,N/A,,Overcast,20,2012-11-19 05:37:00
12:58 AM,44.6,37.4,76,30.46,10.0,North,5.8,-,N/A,,Overcast,360,2012-11-19 05:58:00
1:20 AM,44.6,37.4,76,30.46,10.0,North,4.6,-,N/A,,Overcast,10,2012-11-19 06:20:00
2:02 AM,46.4,37.4,71,30.46,10.0,Calm,Calm,-,N/A,,Overcast,0,2012-11-19 07:02:00
2:23 AM,46.4,37.4,71,30.45,10.0,North,4.6,-,N/A,,Overcast,10,2012-11-19 07:23:00
3:06 AM,46.4,37.4,71,30.45,10.0,North,4.6,-,N/A,,Overcast,350,2012-11-19 08:06:00
3:27 AM,46.4,37.4,71,30.44,10.0,NNE,5.8,-,N/A,,Overcast,20,2012-11-19 08:27:00
3:48 AM,46.4,37.4,71,30.43,10.0,Calm,Calm,-,N/A,,Overcast,0,2012-11-19 08:48:00
4:10 AM,46.4,37.4,71,30.42,10.0,Calm,Calm,-,N/A,,Overcast,0,2012-11-19 09:10:00
5:35 AM,46.4,37.4,71,30.43,10.0,North,6.9,-,N/A,,Overcast,10,2012-11-19 10:35:00
5:56 AM,46.4,37.4,71,30.42,10.0,NE,3.5,-,N/A,,Overcast,50,2012-11-19 10:56:00
6:17 AM,46.4,37.4,71,30.42,10.0,NNE,4.6,-,N/A,,Overcast,20,2012-11-19 11:17:00
6:39 AM,46.4,37.4,71,30.42,10.0,North,5.8,-,N/A,,Overcast,10,2012-11-19 11:39:00
7:00 AM,46.4,39.2,76,30.42,10.0,North,8.1,-,N/A,,Overcast,360,2012-11-19 12:00:00
7:21 AM,44.6,39.2,81,30.42,10.0,North,6.9,-,N/A,,Overcast,10,2012-11-19 12:21:00
8:03 AM,44.6,39.2,81,30.42,10.0,NNW,3.5,-,N/A,,Overcast,340,2012-11-19 13:03:00
8:25 AM,44.6,39.2,81,30.42,10.0,NE,5.8,-,N/A,,Overcast,40,2012-11-19 13:25:00
8:46 AM,44.6,39.2,81,30.42,10.0,North,4.6,-,N/A,,Overcast,350,2012-11-19 13:46:00
9:07 AM,44.6,39.2,81,30.42,10.0,North,5.8,-,N/A,,Overcast,360,2012-11-19 14:07:00
9:28 AM,44.6,39.2,81,30.41,10.0,North,5.8,-,N/A,,Overcast,360,2012-11-19 14:28:00
9:50 AM,44.6,39.2,81,30.41,10.0,North,6.9,-,N/A,,Overcast,360,2012-11-19 14:50:00
10:11 AM,44.6,39.2,81,30.41,10.0,North,6.9,-,N/A,,Overcast,360,2012-11-19 15:11:00
10:32 AM,44.6,39.2,81,30.40,10.0,NNE,4.6,-,N/A,,Overcast,20,2012-11-19 15:32:00
10:53 AM,44.6,39.2,81,30.39,10.0,North,5.8,-,N/A,,Overcast,10,2012-11-19 15:53:00
11:15 AM,44.6,39.2,81,30.38,10.0,NNE,5.8,-,N/A,,Overcast,20,2012-11-19 16:15:00
11:57 AM,44.6,39.2,81,30.36,10.0,North,8.1,-,N/A,,Overcast,350,2012-11-19 16:57:00
12:18 PM,44.6,39.2,81,30.35,10.0,North,5.8,-,N/A,,Overcast,350,2012-11-19 17:18:00
12:39 PM,46.4,41.0,81,30.34,10.0,North,5.8,-,N/A,,Overcast,350,2012-11-19 17:39:00
1:01 PM,46.4,41.0,81,30.34,10.0,NNW,4.6,-,N/A,,Overcast,330,2012-11-19 18:01:00
1:22 PM,46.4,41.0,81,30.34,10.0,North,3.5,-,N/A,,Overcast,10,2012-11-19 18:22:00
1:43 PM,46.4,41.0,81,30.32,10.0,NNE,6.9,-,N/A,,Overcast,30,2012-11-19 18:43:00
2:04 PM,46.4,41.0,81,30.31,10.0,North,5.8,-,N/A,,Overcast,360,2012-11-19 19:04:00
2:26 PM,46.4,41.0,81,30.30,10.0,North,5.8,-,N/A,,Overcast,350,2012-11-19 19:26:00
2:47 PM,46.4,41.0,81,30.30,10.0,North,3.5,-,N/A,,Overcast,10,2012-11-19 19:47:00
3:08 PM,46.4,39.2,76,30.31,10.0,North,4.6,-,N/A,,Overcast,360,2012-11-19 20:08:00
3:29 PM,48.2,39.2,71,30.31,10.0,NNE,6.9,-,N/A,,Overcast,20,2012-11-19 20:29:00
3:51 PM,48.2,37.4,66,30.31,10.0,North,4.6,-,N/A,,Overcast,10,2012-11-19 20:51:00
4:12 PM,46.4,39.2,76,30.30,10.0,Calm,Calm,-,N/A,,Overcast,0,2012-11-19 21:12:00
4:33 PM,46.4,39.2,76,30.30,10.0,Calm,Calm,-,N/A,,Overcast,0,2012-11-19 21:33:00
4:54 PM,46.4,39.2,76,30.30,10.0,Calm,Calm,-,N/A,,Overcast,0,2012-11-19 21:54:00
5:16 PM,48.2,39.2,71,30.29,10.0,NNE,3.5,-,N/A,,Overcast,20,2012-11-19 22:16:00
5:37 PM,48.2,39.2,71,30.29,10.0,Calm,Calm,-,N/A,,Overcast,0,2012-11-19 22:37:00
5:58 PM,48.2,39.2,71,30.28,10.0,Calm,Calm,-,N/A,,Overcast,0,2012-11-19 22:58:00
6:19 PM,48.2,39.2,71,30.29,10.0,Calm,Calm,-,N/A,,Overcast,0,2012-11-19 23:19:00
6:41 PM,48.2,41.0,76,30.28,10.0,Calm,Calm,-,N/A,,Overcast,0,2012-11-19 23:41:00
7:02 PM,48.2,41.0,76,30.28,10.0,Calm,Calm,-,N/A,,Overcast,0,2012-11-20 00:02:00
7:23 PM,50.0,41.0,71,30.28,10.0,Calm,Calm,-,N/A,,Overcast,0,2012-11-20 00:23:00
7:44 PM,50.0,41.0,71,30.27,10.0,Calm,Calm,-,N/A,,Overcast,0,2012-11-20 00:44:00
8:05 PM,50.0,41.0,71,30.27,10.0,NNE,4.6,-,N/A,,Overcast,20,2012-11-20 01:05:00
9:09 PM,50.0,41.0,71,30.26,10.0,North,3.5,-,N/A,,Overcast,360,2012-11-20 02:09:00
9:31 PM,48.2,41.0,76,30.25,10.0,North,3.5,-,N/A,,Overcast,10,2012-11-20 02:31:00
9:52 PM,48.2,41.0,76,30.25,10.0,North,3.5,-,N/A,,Overcast,10,2012-11-20 02:52:00
10:13 PM,48.2,41.0,76,30.24,10.0,NNW,3.5,-,N/A,,Overcast,340,2012-11-20 03:13:00
10:34 PM,48.2,41.0,76,30.23,10.0,North,3.5,-,N/A,,Overcast,10,2012-11-20 03:34:00
10:56 PM,48.2,41.0,76,30.22,10.0,North,4.6,-,N/A,,Overcast,10,2012-11-20 03:56:00
11:17 PM,48.2,41.0,76,30.22,10.0,NNE,4.6,-,N/A,,Overcast,20,2012-11-20 04:17:00
11:38 PM,48.2,41.0,76,30.22,10.0,North,3.5,-,N/A,,Overcast,10,2012-11-20 04:38:00